DW0952 Weather Reports


time (UTC)temp
C
wind
direction
speed
KPH
gust
KPH
rain 1hr
cm
rain 24hr
cm
rain mn
cm
humidity
%
barometer
mb
20200531061826 21 96 0.0 0.0 0.00 0.00 0.00 42 1016.7
20200531061621 21 96 0.0 0.0 0.00 0.00 0.00 42 1005.3
20200531061323 21 96 0.0 0.0 0.00 0.00 0.00 42 1016.7
20200531060831 21 96 0.0 0.0 0.00 0.00 0.00 42 1016.7
20200531060355 22 96 0.0 0.0 0.00 0.00 0.00 42 1016.7
20200531060134 21 96 0.0 0.0 0.00 0.00 0.00 41 1005.3
20200531055825 22 96 0.0 0.0 0.00 0.00 0.00 41 1016.7
20200531055322 22 96 0.0 0.0 0.00 0.00 0.00 41 1016.7
20200531054828 22 96 0.0 0.0 0.00 0.00 0.00 41 1016.7
20200531054630 22 96 0.0 0.0 0.00 0.00 0.00 40 1005.2
20200531054324 22 96 0.0 0.0 0.00 0.00 0.00 40 1016.6
20200531053820 22 96 0.0 0.0 0.00 0.00 0.00 40 1016.5
20200531053331 22 96 0.0 0.0 0.00 0.00 0.00 40 1016.4
20200531053103 22 96 0.0 0.0 0.00 0.00 0.00 39 1005.1
20200531052835 22 96 0.0 0.0 0.00 0.00 0.00 39 1016.5
20200531052408 23 97 0.0 0.0 0.00 0.00 0.00 39 1016.5
20200531051817 23 97 0.0 0.0 0.00 0.00 0.00 39 1016.5
20200531051616 23 97 0.0 0.0 0.00 0.00 0.00 39 1005.0
20200531051326 23 97 0.0 0.0 0.00 0.00 0.00 39 1016.5
20200531050824 23 97 0.0 0.0 0.00 0.00 0.00 38 1016.5
20200531050400 23 98 0.0 0.0 0.00 0.00 0.00 38 1016.5
20200531050038 23 103 0.0 0.0 0.00 0.00 0.00 38 1005.0
20200531045831 23 103 0.0 0.0 0.00 0.00 0.00 38 1016.4
20200531045325 23 103 0.0 0.0 0.00 0.00 0.00 38 1016.4
20200531044833 23 103 0.0 0.0 0.00 0.00 0.00 37 1016.2
20200531044649 23 103 0.0 0.0 0.00 0.00 0.00 37 1004.8
20200531044315 24 103 0.0 0.0 0.00 0.00 0.00 37 1016.2
20200531043828 24 103 0.0 0.0 0.00 0.00 0.00 37 1016.0
20200531043356 24 103 0.0 0.0 0.00 0.00 0.00 36 1004.5
20200531043325 25 103 0.0 0.0 0.00 0.00 0.00 36 1015.9
20200531042831 25 103 0.0 0.0 0.00 0.00 0.00 36 1015.9
20200531042326 25 103 0.0 0.0 0.00 0.00 0.00 35 1015.8
20200531041822 25 103 0.0 0.0 0.00 0.00 0.00 35 1015.7
20200531041600 25 103 0.0 0.0 0.00 0.00 0.00 34 1004.2
20200531041335 25 103 0.0 0.0 0.00 0.00 0.00 34 1015.6
20200531040833 25 103 0.0 0.0 0.00 0.00 0.00 34 1015.6
20200531040056 25 103 0.0 0.0 0.00 0.00 0.00 33 1004.0
20200531035821 25 103 0.0 0.0 0.00 0.00 0.00 33 1016.3
20200531035330 25 103 0.0 0.0 0.00 0.00 0.00 33 1016.2
20200531034923 25 104 0.0 0.0 0.00 0.00 0.00 33 1003.9
20200531034829 25 104 0.0 0.0 0.00 0.00 0.00 33 1016.2
20200531034326 25 104 0.0 0.0 0.00 0.00 0.00 33 1016.2
20200531033824 26 104 0.0 0.0 0.00 0.00 0.00 32 1016.2
20200531033333 26 104 0.0 0.0 0.00 0.00 0.00 32 1016.2
20200531033125 26 104 0.0 0.0 0.00 0.00 0.00 31 1004.0
20200531033002 26 104 0.0 0.0 0.00 0.00 0.00 31 1004.0
20200531032833 26 104 0.0 0.0 0.00 0.00 0.00 31 1016.2
20200531032318 26 104 0.0 0.0 0.00 0.00 0.00 31 1016.0
20200531031831 26 104 0.0 0.0 0.00 0.00 0.00 31 1016.0
20200531031609 26 104 0.0 0.0 0.00 0.00 0.00 31 1003.8
20200531031321 27 104 0.0 0.0 0.00 0.00 0.00 31 1016.0
20200531030839 27 103 0.0 0.0 0.00 0.00 0.00 31 1016.0
20200531030402 27 103 0.0 0.0 0.00 0.00 0.00 31 1015.9
20200531025824 27 103 0.0 0.0 0.00 0.00 0.00 31 1015.9
20200531025332 27 103 0.0 0.0 0.00 0.00 0.00 32 1016.0
20200531024829 27 103 0.0 0.0 0.00 0.00 0.00 32 1015.8
20200531024326 27 103 0.0 0.0 0.00 0.00 0.00 32 1015.6
20200531023842 27 103 0.0 0.0 0.00 0.00 0.00 32 1015.6
20200531023320 27 103 0.0 0.0 0.00 0.00 0.00 31 1015.5
20200531023126 27 103 0.0 0.0 0.00 0.00 0.00 31 1003.2
20200531022835 28 103 0.0 0.0 0.00 0.00 0.00 31 1015.4
20200531022332 28 103 0.0 0.0 0.00 0.00 0.00 31 1015.4
20200531021831 28 103 0.0 0.0 0.00 0.00 0.00 31 1015.4
20200531021318 28 103 0.0 0.0 0.00 0.00 0.00 30 1015.3
20200531020820 28 103 0.0 0.0 0.00 0.00 0.00 30 1015.4
20200531020359 29 103 0.0 0.0 0.00 0.00 0.00 29 1015.4
20200531020111 28 103 0.0 0.0 0.00 0.00 0.00 30 1003.1
20200531015816 29 103 0.0 0.0 0.00 0.00 0.00 30 1015.5
20200531015323 29 103 0.0 0.0 0.00 0.00 0.00 29 1015.3
20200531014821 29 103 0.0 0.0 0.00 0.00 0.00 29 1015.3
20200531014649 29 103 0.0 0.0 0.00 0.00 0.00 29 1003.0
20200531014326 30 103 0.0 0.0 0.00 0.00 0.00 29 1015.4
20200531013845 30 101 0.0 0.0 0.00 0.00 0.00 29 1015.2
20200531013317 30 258 0.0 0.0 0.00 0.00 0.00 28 1015.0
20200531013030 30 258 0.0 0.0 0.00 0.00 0.00 28 1002.7
20200531012817 31 258 0.0 0.0 0.00 0.00 0.00 28 1015.0
20200531012319 31 258 0.0 0.0 0.00 0.00 0.00 27 1015.0
20200531011817 31 258 0.0 0.0 0.00 0.00 0.00 27 1014.8
20200531011508 31 258 0.0 0.0 0.00 0.00 0.00 27 1002.5
20200531011329 31 258 0.0 0.0 0.00 0.00 0.00 27 1014.7
20200531010823 31 258 0.0 0.0 0.00 0.00 0.00 26 1014.7
20200531010408 31 258 0.0 0.0 0.00 0.00 0.00 26 1014.7
20200531010208 31 258 0.0 0.0 0.00 0.00 0.00 26 1002.3
20200531005821 32 258 0.0 0.0 0.00 0.00 0.00 26 1014.6
20200531005330 32 258 0.0 0.0 0.00 0.00 0.00 25 1014.4
20200531004829 32 258 0.0 0.0 0.00 0.00 0.00 24 1014.4
20200531004323 32 258 0.0 0.0 0.00 0.00 0.00 24 1014.4
20200531003821 32 254 0.0 0.0 0.00 0.00 0.00 24 1014.5
20200531003318 32 254 0.0 0.0 0.00 0.00 0.00 24 1014.4
20200531003025 32 254 0.0 0.0 0.00 0.00 0.00 24 1002.2
20200531002818 32 254 0.0 0.0 0.00 0.00 0.00 24 1014.5
20200531002315 32 254 0.0 3.2 0.00 0.00 0.00 24 1014.6
20200531001832 32 254 0.0 3.2 0.00 0.00 0.00 23 1014.6
20200531001337 32 254 1.6 3.2 0.00 0.00 0.00 22 1014.6
20200531000822 32 254 1.6 4.8 0.00 0.00 0.00 23 1014.7
20200531000351 32 254 0.0 4.8 0.00 0.00 0.00 22 1014.8
20200531000008 32 254 3.2 0.0 0.00 0.00 0.00 22 1002.5
20200530235825 32 254 3.2 6.4 0.00 0.00 0.00 22 1014.8
20200530235316 32 254 4.8 9.7 0.00 0.00 0.00 22 1014.9
20200530234822 32 254 4.8 8.0 0.00 0.00 0.00 21 1014.9
20200530234605 32 254 4.8 0.0 0.00 0.00 0.00 21 1002.7
20200530234324 32 254 3.2 9.7 0.00 0.00 0.00 21 1015.0
20200530233834 32 253 4.8 11.3 0.00 0.00 0.00 21 1015.0
20200530233332 32 252 3.2 14.5 0.00 0.00 0.00 21 1015.1
20200530233009 32 244 8.0 0.0 0.00 0.00 0.00 21 1002.8
20200530232832 33 252 6.4 14.5 0.00 0.00 0.00 21 1015.2
20200530232328 33 244 8.0 12.9 0.00 0.00 0.00 21 1015.2
20200530231820 33 242 6.4 16.1 0.00 0.00 0.00 21 1015.3
20200530231522 33 225 8.0 0.0 0.00 0.00 0.00 21 1003.1
20200530231316 33 222 4.8 17.7 0.00 0.00 0.00 22 1015.5
20200530230817 33 234 9.7 17.7 0.00 0.00 0.00 22 1015.6
20200530230358 33 244 8.0 19.3 0.00 0.00 0.00 22 1015.6
20200530230019 32 253 9.7 0.0 0.00 0.00 0.00 22 1003.3
20200530225830 33 219 9.7 20.9 0.00 0.00 0.00 22 1015.6
20200530225321 33 227 11.3 20.9 0.00 0.00 0.00 22 1015.6
20200530224816 33 233 9.7 16.1 0.00 0.00 0.00 23 1015.6
20200530224605 32 236 9.7 0.0 0.00 0.00 0.00 22 1003.3
20200530224324 32 232 9.7 19.3 0.00 0.00 0.00 23 1015.6
20200530223858 33 251 11.3 29.0 0.00 0.00 0.00 22 1015.6
20200530223333 33 238 12.9 30.6 0.00 0.00 0.00 22 1015.6
20200530222822 34 240 17.7 30.6 0.00 0.00 0.00 20 1015.6
20200530222320 34 229 6.4 16.1 0.00 0.00 0.00 19 1015.5
20200530221854 35 236 8.0 16.1 0.00 0.00 0.00 19 1015.4
20200530221529 35 192 1.6 0.0 0.00 0.00 0.00 18 1003.1
20200530221325 35 241 1.6 14.5 0.00 0.00 0.00 18 1015.5
20200530220815 35 174 3.2 12.9 0.00 0.00 0.00 18 1015.6
20200530220403 35 126 0.0 9.7 0.00 0.00 0.00 17 1015.5
20200530220034 35 126 1.6 0.0 0.00 0.00 0.00 16 1003.3
20200530215829 36 113 3.2 8.0 0.00 0.00 0.00 16 1015.6
20200530215325 36 182 0.0 19.3 0.00 0.00 0.00 16 1015.7
20200530214818 36 121 6.4 19.3 0.00 0.00 0.00 17 1015.9
20200530214641 35 122 4.8 0.0 0.00 0.00 0.00 17 1003.6
20200530214336 35 109 6.4 12.9 0.00 0.00 0.00 17 1015.8
20200530213830 35 85 4.8 11.3 0.00 0.00 0.00 17 1016.0
20200530213333 35 194 0.0 16.1 0.00 0.00 0.00 16 1016.2
20200530213045 35 209 4.8 0.0 0.00 0.00 0.00 17 1004.0
20200530212817 35 209 4.8 16.1 0.00 0.00 0.00 16 1016.2
20200530212324 35 154 4.8 14.5 0.00 0.00 0.00 17 1016.3
20200530211816 35 165 0.0 14.5 0.00 0.00 0.00 17 1016.5
20200530211628 35 154 4.8 0.0 0.00 0.00 0.00 17 1004.3
20200530211325 35 174 3.2 19.3 0.00 0.00 0.00 18 1016.5
20200530210821 35 174 4.8 19.3 0.00 0.00 0.00 17 1016.6
20200530210347 35 107 4.8 12.9 0.00 0.00 0.00 17 1016.8
20200530210250 35 128 8.0 0.0 0.00 0.00 0.00 17 1004.5
20200530205816 36 123 3.2 29.0 0.00 0.00 0.00 17 1016.7
20200530205328 36 132 11.3 29.0 0.00 0.00 0.00 17 1016.8
20200530204818 35 163 8.0 20.9 0.00 0.00 0.00 17 1016.9
20200530204708 35 109 11.3 0.0 0.00 0.00 0.00 17 1004.8
20200530204609 35 130 11.3 0.0 0.00 0.00 0.00 17 1004.8
20200530204322 35 159 11.3 20.9 0.00 0.00 0.00 17 1017.0
20200530203820 35 118 11.3 17.7 0.00 0.00 0.00 16 1017.1
20200530203316 35 160 0.0 17.7 0.00 0.00 0.00 17 1017.2
20200530203138 35 156 9.7 0.0 0.00 0.00 0.00 17 1005.0
20200530202833 35 117 11.3 17.7 0.00 0.00 0.00 16 1017.2
20200530202321 36 105 11.3 24.1 0.00 0.00 0.00 17 1017.2
20200530201904 36 178 17.7 24.1 0.00 0.00 0.00 17 1017.3
20200530201649 35 137 9.7 0.0 0.00 0.00 0.00 17 1005.1
20200530201319 35 165 11.3 22.5 0.00 0.00 0.00 17 1017.4
20200530200818 35 115 11.3 22.5 0.00 0.00 0.00 17 1017.4
20200530200400 35 93 11.3 17.7 0.00 0.00 0.00 16 1017.5
20200530200017 35 158 8.0 0.0 0.00 0.00 0.00 17 1005.3
20200530195831 35 107 9.7 17.7 0.00 0.00 0.00 17 1017.7
20200530195322 35 168 9.7 14.5 0.00 0.00 0.00 18 1017.7
20200530194832 35 107 9.7 19.3 0.00 0.00 0.00 17 1017.7
20200530194608 34 169 9.7 0.0 0.00 0.00 0.00 17 1005.5
20200530194321 35 172 8.0 19.3 0.00 0.00 0.00 17 1017.8
20200530193812 35 168 9.7 20.9 0.00 0.00 0.00 17 1017.9
20200530193332 35 175 11.3 24.1 0.00 0.00 0.00 17 1018.0
20200530192820 35 130 9.7 24.1 0.00 0.00 0.00 17 1018.0
20200530192316 35 159 9.7 24.1 0.00 0.00 0.00 18 1018.1
20200530191835 35 119 14.5 24.1 0.00 0.00 0.00 17 1018.2
20200530191711 34 132 12.9 0.0 0.00 0.00 0.00 17 1006.0
20200530191335 34 98 11.3 22.5 0.00 0.00 0.00 17 1018.2
20200530190832 35 117 14.5 22.5 0.00 0.00 0.00 17 1018.3
20200530190351 34 114 8.0 24.1 0.00 0.00 0.00 18 1018.4
20200530185820 34 101 16.1 24.1 0.00 0.00 0.00 17 1018.5
20200530185320 34 136 12.9 22.5 0.00 0.00 0.00 18 1018.5
20200530183318 34 119 16.1 29.0 0.00 0.00 0.00 18 1018.8
20200530183133 34 123 14.5 0.0 0.00 0.00 0.00 18 1006.5
20200530182854 35 107 11.3 25.7 0.00 0.00 0.00 18 1018.8
20200530182331 34 102 16.1 22.5 0.00 0.00 0.00 18 1018.8
20200530181816 34 116 14.5 24.1 0.00 0.00 0.00 18 1018.9
20200530181604 34 121 16.1 0.0 0.00 0.00 0.00 17 1006.7
20200530181334 34 121 14.5 25.7 0.00 0.00 0.00 17 1019.1
20200530180822 34 111 14.5 25.7 0.00 0.00 0.00 18 1019.1
20200530180411 33 132 17.7 29.0 0.00 0.00 0.00 17 1019.2
20200530180215 33 98 16.1 0.0 0.00 0.00 0.00 17 1006.9
20200530175831 33 98 17.7 29.0 0.00 0.00 0.00 17 1019.2
20200530175324 33 139 16.1 29.0 0.00 0.00 0.00 17 1019.2
20200530174822 34 114 19.3 29.0 0.00 0.00 0.00 18 1019.4
20200530174508 33 113 14.5 0.0 0.00 0.00 0.00 18 1007.1
20200530174338 33 156 12.9 24.1 0.00 0.00 0.00 17 1019.4
20200530173819 33 157 14.5 25.7 0.00 0.00 0.00 17 1019.4
20200530173315 33 163 12.9 29.0 0.00 0.00 0.00 18 1019.5
20200530173118 33 114 16.1 0.0 0.00 0.00 0.00 18 1007.3
20200530172823 33 127 16.1 29.0 0.00 0.00 0.00 17 1019.5
20200530172323 33 132 14.5 25.7 0.00 0.00 0.00 18 1019.4
20200530171836 33 131 14.5 25.7 0.00 0.00 0.00 18 1019.5
20200530171507 33 127 12.9 0.0 0.00 0.00 0.00 18 1007.2
20200530171322 33 113 14.5 25.7 0.00 0.00 0.00 18 1019.5
20200530170820 33 126 14.5 24.1 0.00 0.00 0.00 19 1019.5
20200530170359 33 122 4.8 19.3 0.00 0.00 0.00 21 1019.5
20200530170006 32 154 9.7 0.0 0.00 0.00 0.00 21 1007.3
20200530165824 32 155 12.9 19.3 0.00 0.00 0.00 22 1019.6
20200530165323 32 111 9.7 17.7 0.00 0.00 0.00 23 1019.5
20200530164826 31 161 11.3 17.7 0.00 0.00 0.00 24 1019.6
20200530164739 31 172 9.7 0.0 0.00 0.00 0.00 25 1007.3
20200530164324 31 156 9.7 17.7 0.00 0.00 0.00 25 1019.5
20200530163834 31 121 8.0 17.7 0.00 0.00 0.00 25 1019.6
20200530163328 31 135 8.0 17.7 0.00 0.00 0.00 25 1019.6
20200530163119 30 105 8.0 0.0 0.00 0.00 0.00 26 1007.5
20200530162826 31 98 11.3 14.5 0.00 0.00 0.00 25 1019.6
20200530162325 31 108 4.8 19.3 0.00 0.00 0.00 25 1019.6
20200530161817 31 120 12.9 19.3 0.00 0.00 0.00 25 1019.6
20200530161629 30 146 9.7 0.0 0.00 0.00 0.00 25 1007.5
20200530161326 31 136 11.3 19.3 0.00 0.00 0.00 26 1019.7
20200530160822 31 128 12.9 17.7 0.00 0.00 0.00 25 1019.8
20200530160356 31 118 11.3 17.7 0.00 0.00 0.00 26 1019.8
20200530160043 30 112 9.7 0.0 0.00 0.00 0.00 26 1007.7
20200530155815 31 95 9.7 17.7 0.00 0.00 0.00 26 1019.9
20200530155334 31 140 11.3 17.7 0.00 0.00 0.00 25 1019.9
20200530154830 31 146 11.3 17.7 0.00 0.00 0.00 26 1019.9
20200530154514 30 105 9.7 0.0 0.00 0.00 0.00 26 1007.7
20200530154328 31 126 9.7 14.5 0.00 0.00 0.00 26 1020.0
20200530153816 30 138 8.0 17.7 0.00 0.00 0.00 26 1020.0
20200530153322 30 115 9.7 17.7 0.00 0.00 0.00 27 1020.0
20200530153103 29 126 6.4 0.0 0.00 0.00 0.00 28 1007.8
20200530152830 29 144 9.7 14.5 0.00 0.00 0.00 28 1020.0
20200530152330 29 123 0.0 14.5 0.00 0.00 0.00 28 1020.0
20200530151827 30 107 6.4 14.5 0.00 0.00 0.00 28 1019.9
20200530151629 29 132 6.4 0.0 0.00 0.00 0.00 27 1007.7
20200530151318 30 127 6.4 17.7 0.00 0.00 0.00 27 1019.9
20200530150817 30 105 6.4 17.7 0.00 0.00 0.00 27 1019.9
20200530150353 30 145 4.8 20.9 0.00 0.00 0.00 27 1019.1
20200530150025 29 114 11.3 0.0 0.00 0.00 0.00 26 1007.7
20200530145834 30 113 9.7 20.9 0.00 0.00 0.00 26 1019.9
20200530145329 29 118 9.7 19.3 0.00 0.00 0.00 26 1019.8
20200530144825 29 90 9.7 20.9 0.00 0.00 0.00 27 1019.8
20200530144619 28 128 8.0 0.0 0.00 0.00 0.00 28 1007.6
20200530144322 28 140 12.9 20.9 0.00 0.00 0.00 28 1019.8
20200530143831 28 110 4.8 12.9 0.00 0.00 0.00 31 1018.9
20200530143321 27 119 8.0 14.5 0.00 0.00 0.00 32 1018.9
20200530143047 27 114 4.8 0.0 0.00 0.00 0.00 33 1007.5
20200530142816 27 121 6.4 14.5 0.00 0.00 0.00 33 1018.9
20200530142334 26 132 0.0 9.7 0.00 0.00 0.00 35 1018.9
20200530141832 26 152 1.6 9.7 0.00 0.00 0.00 37 1018.9
20200530141534 25 80 0.0 0.0 0.00 0.00 0.00 38 1007.5
20200530141333 25 80 0.0 8.0 0.00 0.00 0.00 39 1018.9
20200530140830 25 206 0.0 0.0 0.00 0.00 0.00 40 1018.8
20200530140351 25 206 0.0 0.0 0.00 0.00 0.00 42 1018.9
20200530140112 24 206 0.0 0.0 0.00 0.00 0.00 41 1007.5
20200530135817 24 206 0.0 0.0 0.00 0.00 0.00 43 1018.8
20200530135316 23 206 0.0 0.0 0.00 0.00 0.00 43 1018.9
20200530134827 23 206 0.0 0.0 0.00 0.00 0.00 45 1018.8
20200530134647 22 236 0.0 0.0 0.00 0.00 0.00 47 1007.5
20200530134325 22 237 0.0 0.0 0.00 0.00 0.00 48 1018.8
20200530133826 22 237 0.0 0.0 0.00 0.00 0.00 49 1018.8
20200530133321 21 237 0.0 1.6 0.00 0.00 0.00 52 1018.8
20200530133034 20 244 0.0 0.0 0.00 0.00 0.00 53 1007.3
20200530132833 20 244 0.0 1.6 0.00 0.00 0.00 55 1018.7
20200530132331 20 244 0.0 0.0 0.00 0.00 0.00 57 1018.7
20200530131819 19 244 0.0 0.0 0.00 0.00 0.00 60 1018.7
20200530131646 18 244 0.0 0.0 0.00 0.00 0.00 59 1007.3
20200530131332 18 244 0.0 1.6 0.00 0.00 0.00 60 1018.6
20200530130826 18 244 0.0 1.6 0.00 0.00 0.00 61 1018.7
20200530130348 17 244 0.0 1.6 0.00 0.00 0.00 61 1018.7
20200530130059 17 244 0.0 0.0 0.00 0.00 0.00 61 1007.3
20200530125833 17 244 0.0 1.6 0.00 0.00 0.00 60 1018.6
20200530125322 17 244 0.0 3.2 0.00 0.00 0.00 60 1018.6
20200530124831 17 244 0.0 3.2 0.00 0.00 0.00 59 1018.6
20200530124327 17 244 0.0 3.2 0.00 0.00 0.00 58 1018.6
20200530123841 17 275 1.6 3.2 0.00 0.00 0.00 58 1018.6
20200530123331 17 275 1.6 3.2 0.00 0.00 0.00 57 1018.6
20200530123112 17 183 0.0 0.0 0.00 0.00 0.00 57 1007.2
20200530122825 17 183 0.0 0.0 0.00 0.00 0.00 57 1018.6
20200530122321 17 183 0.0 0.0 0.00 0.00 0.00 56 1018.5
20200530121818 17 183 0.0 0.0 0.00 0.00 0.00 56 1018.5
20200530121503 17 183 0.0 0.0 0.00 0.00 0.00 56 1007.1
20200530121316 17 183 0.0 0.0 0.00 0.00 0.00 56 1018.5
20200530120830 17 183 0.0 0.0 0.00 0.00 0.00 56 1018.3
20200530120348 17 183 0.0 0.0 0.00 0.00 0.00 55 1018.3
20200530120257 17 183 0.0 0.0 0.00 0.00 0.00 55 1006.8
20200530115817 17 183 0.0 0.0 0.00 0.00 0.00 55 1018.2
20200530115316 17 159 0.0 0.0 0.00 0.00 0.00 55 1018.1
20200530114825 17 159 0.0 0.0 0.00 0.00 0.00 55 1018.1
20200530114740 17 159 0.0 0.0 0.00 0.00 0.00 55 1006.7
20200530114320 17 159 0.0 0.0 0.00 0.00 0.00 55 1018.1
20200530113820 17 159 0.0 0.0 0.00 0.00 0.00 55 1018.1
20200530113324 17 159 0.0 0.0 0.00 0.00 0.00 55 1018.1
20200530113144 17 159 0.0 0.0 0.00 0.00 0.00 55 1006.7
20200530112823 17 159 0.0 0.0 0.00 0.00 0.00 55 1018.0
20200530112323 17 159 0.0 0.0 0.00 0.00 0.00 56 1018.1
20200530111821 17 159 0.0 0.0 0.00 0.00 0.00 55 1018.1
20200530111620 17 159 0.0 0.0 0.00 0.00 0.00 55 1006.7
20200530111317 17 159 0.0 0.0 0.00 0.00 0.00 55 1018.1
20200530110836 17 159 0.0 0.0 0.00 0.00 0.00 54 1018.1
20200530110349 17 159 0.0 0.0 0.00 0.00 0.00 54 1018.2
20200530110136 17 159 0.0 0.0 0.00 0.00 0.00 54 1006.8
20200530105818 18 159 0.0 0.0 0.00 0.00 0.00 53 1018.2
20200530105316 18 159 0.0 0.0 0.00 0.00 0.00 53 1018.2
20200530104834 18 159 0.0 0.0 0.00 0.00 0.00 53 1018.2
20200530104550 18 159 0.0 0.0 0.00 0.00 0.00 53 1006.8
20200530104323 18 159 0.0 0.0 0.00 0.00 0.00 53 1018.2
20200530103819 18 159 0.0 0.0 0.00 0.00 0.00 52 1018.2
20200530103319 18 159 0.0 0.0 0.00 0.00 0.00 51 1018.3
20200530102829 18 159 0.0 0.0 0.00 0.00 0.00 51 1018.2
20200530102324 18 159 0.0 0.0 0.00 0.00 0.00 51 1018.3
20200530101841 19 159 0.0 0.0 0.00 0.00 0.00 51 1018.4
20200530101608 18 159 0.0 0.0 0.00 0.00 0.00 51 1007.0
20200530101327 19 159 0.0 0.0 0.00 0.00 0.00 50 1018.3
20200530100828 19 159 0.0 0.0 0.00 0.00 0.00 50 1018.2
20200530100401 19 159 0.0 0.0 0.00 0.00 0.00 50 1018.2
20200530100003 19 159 0.0 0.0 0.00 0.00 0.00 50 1006.9
20200530095830 20 159 0.0 0.0 0.00 0.00 0.00 49 1018.2
20200530095328 20 159 0.0 0.0 0.00 0.00 0.00 49 1018.3
20200530094827 20 159 0.0 0.0 0.00 0.00 0.00 49 1018.2
20200530094318 20 159 0.0 0.0 0.00 0.00 0.00 49 1018.3
20200530093852 20 159 0.0 0.0 0.00 0.00 0.00 49 1018.4
20200530093318 20 159 0.0 0.0 0.00 0.00 0.00 48 1018.4
20200530093030 20 159 0.0 0.0 0.00 0.00 0.00 48 1007.0
20200530092819 20 159 0.0 0.0 0.00 0.00 0.00 48 1018.4
20200530092333 20 159 0.0 0.0 0.00 0.00 0.00 48 1018.4
20200530091829 21 159 0.0 0.0 0.00 0.00 0.00 47 1018.3
20200530091317 21 159 0.0 0.0 0.00 0.00 0.00 46 1018.4
20200530090835 21 159 0.0 0.0 0.00 0.00 0.00 47 1018.4
20200530090353 21 159 0.0 0.0 0.00 0.00 0.00 46 1018.4
20200530090042 21 159 0.0 0.0 0.00 0.00 0.00 46 1007.0
20200530085822 21 159 0.0 0.0 0.00 0.00 0.00 46 1018.4
20200530085319 21 159 0.0 0.0 0.00 0.00 0.00 45 1018.3
20200530084833 21 159 0.0 0.0 0.00 0.00 0.00 45 1018.4
20200530084326 21 159 0.0 0.0 0.00 0.00 0.00 44 1018.3
20200530083827 22 159 0.0 0.0 0.00 0.00 0.00 44 1018.4
20200530083328 22 159 0.0 0.0 0.00 0.00 0.00 44 1018.4
20200530083137 21 159 0.0 0.0 0.00 0.00 0.00 44 1007.1
20200530082827 22 159 0.0 0.0 0.00 0.00 0.00 44 1018.4
20200530082322 22 159 0.0 0.0 0.00 0.00 0.00 44 1018.5
20200530081652 22 159 0.0 0.0 0.00 0.00 0.00 43 1007.1
20200530081318 22 159 0.0 0.0 0.00 0.00 0.00 43 1018.5
20200530080817 22 159 0.0 0.0 0.00 0.00 0.00 42 1018.5
20200530080359 23 159 0.0 0.0 0.00 0.00 0.00 42 1018.7
20200530080006 23 159 0.0 0.0 0.00 0.00 0.00 41 1007.3
20200530075821 23 159 0.0 0.0 0.00 0.00 0.00 41 1018.7
20200530075321 23 159 0.0 0.0 0.00 0.00 0.00 41 1018.7
20200530074816 23 159 0.0 0.0 0.00 0.00 0.00 40 1018.8
20200530074729 23 159 0.0 0.0 0.00 0.00 0.00 40 1007.4
20200530074329 23 159 0.0 0.0 0.00 0.00 0.00 39 1018.7
20200530073827 24 159 0.0 0.0 0.00 0.00 0.00 39 1019.0
20200530073329 24 159 0.0 0.0 0.00 0.00 0.00 39 1019.0
20200530073023 23 159 0.0 0.0 0.00 0.00 0.00 39 1007.6
20200530072823 24 159 0.0 6.4 0.00 0.00 0.00 39 1019.0
20200530072320 24 159 0.0 6.4 0.00 0.00 0.00 39 1019.2
20200530071818 24 159 3.2 8.0 0.00 0.00 0.00 38 1019.2
20200530071726 24 159 3.2 0.0 0.00 0.00 0.00 38 1007.9
20200530071335 24 159 3.2 8.0 0.00 0.00 0.00 38 1019.3
20200530070830 25 159 3.2 8.0 0.00 0.00 0.00 38 1019.3
20200530070352 25 159 1.6 8.0 0.00 0.00 0.00 38 1019.3
20200530070159 24 159 3.2 0.0 0.00 0.00 0.00 38 1008.1
20200530065831 25 159 3.2 8.0 0.00 0.00 0.00 38 1019.5
20200530065332 25 159 3.2 8.0 0.00 0.00 0.00 38 1019.6
20200530064828 25 159 3.2 8.0 0.00 0.00 0.00 38 1019.6
20200530064713 25 159 3.2 0.0 0.00 0.00 0.00 38 1008.3
20200530064330 25 159 1.6 8.0 0.00 0.00 0.00 38 1019.6
20200530063819 26 159 3.2 6.4 0.00 0.00 0.00 37 1019.7
20200530063320 26 159 3.2 6.4 0.00 0.00 0.00 37 1019.8
20200530063122 26 159 3.2 0.0 0.00 0.00 0.00 37 1008.4
20200530062830 26 159 3.2 8.0 0.00 0.00 0.00 37 1019.8
20200530062329 26 159 3.2 8.0 0.00 0.00 0.00 36 1019.7